Tracking 19219 objects as of 20-Jul-2018
HD Live streaming from Space Station
objects crossing your sky now

FENGYUN 1C DEB

Track FENGYUN 1C DEB now!
10-day predictions


NORAD ID: 32325
Int'l Code: 1999-025CXS
Perigee: 717.7 km
Apogee: 818.8 km
Inclination: 99.0 °
Period: 100.1 minutes
Semi major axis: 7139 km
RCS: 0.0111 m2 (small)
Launch date: May 10, 1999
Source: People's Republic of China (PRC)
Launch site: Taiyaun Space Center, China (TSC)

Note: This is SATELLITE DEBRIS
aabbcc
Your satellite tracking list
Your tracking list is empty




NASA's NSSDC Master Catalog

Two Line Element Set (TLE):
1 32325U 99025CXS 18200.27443564 +.00000922 +00000-0 +30419-3 0  9999
2 32325 098.9808 002.3512 0070782 113.4102 247.4548 14.39210088576848
Source of the keplerian elements: AFSPC